Siemreap, Cambodia

4:55 PM ICT on December 08, 2016 (GMT +0700)
Siemreap

Weather History for VDSR - May, 2013

Change the Weather History Date:

Monday, May 6, 2013

  Actual Average Record
Temperature  
Mean Temperature 88 °F -  
Max Temperature 96 °F - - ()
Min Temperature 80 °F - - ()
Cooling Degree Days 23    
Growing Degree Days 38 (Base 50)    
Moisture  
Dew Point 74 °F    
Average Humidity 66    
Maximum Humidity 89    
Minimum Humidity 44    
Precipitation  
Precipitation 0.00 in - - ()
Sea Level Pressure  
Sea Level Pressure 29.76 in    
Wind  
Wind Speed 4 mph ()    
Max Wind Speed 12 mph    
Max Gust Speed -    
Visibility 5.9 miles    
Events Rain , Thunderstorm    
T = Trace of Precipitation, MM = Missing Value Source: Averaged Metar Reports

Daily Weather History Graph

Daily Weather History Graph

Search for Another Location

Airport or City:

Trip Planner

Search our weather history database for the weather conditions in past years. The results will help you decide how hot, cold, wet, or windy it might be!

Date:

Astronomy

May. 06, 2013 Rise Set
Actual Time 5:41 AM ICT 6:21 PM ICT
Civil Twilight 5:19 AM ICT 6:43 PM ICT
Nautical Twilight 4:53 AM ICT 7:09 PM ICT
Astronomical Twilight 4:26 AM ICT 7:36 PM ICT
Moon 2:50 AM ICT (5/6) 3:19 PM ICT (5/6)
Length of Visible Light 13h 24m
Length of Day
12h 39m
Waning Crescent, 14% of the Moon is Illuminated
May 6
Waning Crescent
May 10
New
May 18
First Quarter
May 25
Full
Jun 1
Last Quarter

Hourly Weather History & Observations

Time (ICT) Temp. Heat Index Dew Point Humidity Pressure Visibility Wind Dir Wind Speed Gust Speed Precip Events Conditions
12:00 AM 80.6 °F 86.2 °F 75.2 °F 84% 29.80 in 5.6 mi SSW 1.2 mph - N/A   Partly Cloudy
12:30 AM 80.6 °F 87.1 °F 77.0 °F 89% 29.80 in 5.6 mi South 2.3 mph - N/A   Partly Cloudy
1:00 AM 80.6 °F 86.2 °F 75.2 °F 84% 29.80 in 5.6 mi SE 4.6 mph - N/A   Partly Cloudy
7:00 AM 80.6 °F 86.2 °F 75.2 °F 84% 29.80 in 5.6 mi ESE 4.6 mph - N/A   Partly Cloudy
7:30 AM 82.4 °F 89.5 °F 75.2 °F 79% 29.80 in 6.2 mi ENE 4.6 mph - N/A   Partly Cloudy
8:00 AM 84.2 °F 92.3 °F 75.2 °F 74% 29.83 in 6.2 mi Variable 2.3 mph - N/A   Partly Cloudy
8:30 AM 89.6 °F 98.2 °F 73.4 °F 59% 29.83 in 6.2 mi Variable 2.3 mph - N/A   Partly Cloudy
9:00 AM 87.8 °F 93.8 °F 71.6 °F 58% 29.83 in 6.2 mi Variable 2.3 mph - N/A   Partly Cloudy
9:30 AM 89.6 °F 96.2 °F 71.6 °F 55% 29.83 in 6.2 mi WSW 5.8 mph - N/A   Partly Cloudy
10:00 AM 91.4 °F 98.4 °F 71.6 °F 52% 29.83 in 6.2 mi SSE 4.6 mph - N/A   Partly Cloudy
10:30 AM 89.6 °F 96.2 °F 71.6 °F 55% 29.83 in 6.2 mi SSE 4.6 mph - N/A   Scattered Clouds
11:00 AM 91.4 °F 98.4 °F 71.6 °F 52% 29.80 in 6.2 mi SSE 4.6 mph - N/A   Scattered Clouds
11:30 AM 93.2 °F 100.5 °F 71.6 °F 49% 29.80 in 6.2 mi East 4.6 mph - N/A   Scattered Clouds
12:00 PM 91.4 °F 100.1 °F 73.4 °F 55% 29.80 in 6.2 mi ENE 3.5 mph - N/A   Scattered Clouds
12:30 PM 95.0 °F 103.2 °F 71.6 °F 47% 29.77 in 6.2 mi SE 3.5 mph - N/A   Scattered Clouds
1:00 PM 96.8 °F 105.1 °F 71.6 °F 44% 29.74 in 6.2 mi Variable 3.5 mph - N/A   Scattered Clouds
1:30 PM 95.0 °F 103.2 °F 71.6 °F 47% 29.71 in 6.2 mi Variable 3.5 mph - N/A   Scattered Clouds
2:00 PM 95.0 °F 103.2 °F 71.6 °F 47% 29.71 in 6.2 mi ENE 5.8 mph - N/A   Scattered Clouds
2:30 PM 95.0 °F 101.3 °F 69.8 °F 44% 29.68 in 6.2 mi ESE 6.9 mph - N/A   Scattered Clouds
3:00 PM 95.0 °F 101.3 °F 69.8 °F 44% 29.68 in 6.2 mi SSE 5.8 mph - N/A   Scattered Clouds
3:30 PM 93.2 °F 100.5 °F 71.6 °F 49% 29.65 in 6.2 mi ESE 5.8 mph - N/A   Scattered Clouds
4:00 PM 91.4 °F 100.1 °F 73.4 °F 55% 29.65 in 6.2 mi South 8.1 mph - N/A   Scattered Clouds
4:30 PM 87.8 °F 97.6 °F 75.2 °F 66% 29.65 in 6.2 mi WSW 9.2 mph - N/A   Scattered Clouds
5:00 PM 86.0 °F 95.1 °F 75.2 °F 70% 29.68 in 6.2 mi WSW 9.2 mph - N/A   Scattered Clouds
5:30 PM 86.0 °F 95.1 °F 75.2 °F 70% 29.71 in 5.6 mi West 11.5 mph - N/A Rain Rain
6:00 PM 82.4 °F 89.5 °F 75.2 °F 79% 29.71 in 5.6 mi West 5.8 mph - N/A Thunderstorm Thunderstorm
6:30 PM 82.4 °F 89.5 °F 75.2 °F 79% 29.71 in 5.6 mi ESE 5.8 mph - N/A   Mostly Cloudy
8:00 PM 82.4 °F 89.5 °F 75.2 °F 79% 29.71 in 5.6 mi Variable 1.2 mph - N/A   Mostly Cloudy
8:30 PM 80.6 °F 86.2 °F 75.2 °F 84% 29.74 in 5.6 mi Variable 1.2 mph - N/A   Mostly Cloudy
9:00 PM 80.6 °F 86.2 °F 75.2 °F 84% 29.77 in 5.6 mi Variable 2.3 mph - N/A   Mostly Cloudy
9:30 PM 80.6 °F 86.2 °F 75.2 °F 84% 29.77 in 5.6 mi Variable 2.3 mph - N/A   Mostly Cloudy
10:00 PM 80.6 °F 86.2 °F 75.2 °F 84% 29.80 in 5.6 mi Variable 3.5 mph - N/A   Mostly Cloudy
10:30 PM 80.6 °F 86.2 °F 75.2 °F 84% 29.80 in 5.6 mi Variable 3.5 mph - N/A   Mostly Cloudy
11:00 PM 80.6 °F 85.4 °F 73.4 °F 79% 29.80 in 5.6 mi Variable 2.3 mph - N/A   Mostly Cloudy
11:30 PM 80.6 °F 85.4 °F 73.4 °F 79% 29.80 in 5.6 mi Variable 2.3 mph - N/A   Mostly Cloudy